Погода в Смоленске

Погода в Смоленске : погода сейчас, прогноз погоды и архив. Всё, что Вы хотите узнать о погоде в Смоленске!

Хотите узнать прогноз погоды в Смоленске? Тогда Вам сюда: Погода в Смоленске

Поиск расширенной информации на нашем сайте:

Другие новости

Новости СМИ2

Главная страница сайта

Новости сайта

03.07.2017

Напоминаем, что на нашем специализированном сайте Метеоцентр.Азия вы можете получить высокодетализированные автоматические прогнозы погоды по пунктам России, СНГ и мира в авиационном формате (включающие направление и скорость ветра, видимость, явления погоды, количество и форму облачности, нижнюю и верхнюю границу облачности).

Рекомендуем: белый кот

Погода в Смоленске - сегодня

Время (UTC), дата Ветер
(°,м/с) 
Видим.   Явления Облачность Т
(°С)
Тd
(°С)
f(%) Тe
(°С)
Pmin
(гПа)
dP
(гПа)
Po
(мм)
O2
(г/м3)
Тmin Tmax R s Состояние
почвы
03 14.08.18 тихо ()   4000 м  дымка{дождь}  3/3 600 м 
[Sc diur, vesp]
+11 +10.2 95 +13  1014.9  0.6  740  285  +10.9       
06 14.08.18 120 (ЮВ) 20000 м  {дождь}  3/0 верхняя 
[Ci fib]
+17.7 +13 74 +25  1014.4  0.2  740  277  +10.9    0.5    влажная 
09 14.08.18 140 (ЮВ) 20000 м    3/0 верхняя 
[Ci sp]
+22.6 +14.4 60 +31  1014  740  272           
12 14.08.18 190 (Ю) 20000 м    8/3 600 м средняя 
[Cu med, cong|Ac trans]
+24.2 +14.4 54 +32  1013.6  -0.3  740  271           
15 14.08.18 180 (Ю) 20000 м    9/1 1000 м верхняя 
[Sc diur, vesp|Ci]
+24.7 +14.6 53 +33  1012.8  -0.7  739  270           
21 14.08.18 140 (ЮВ) 10 км    8/0 верхняя 
[Ci fib]
+16.1 +14.6 91 +25  1012.6  -0.8  738  278           
00 15.08.18 130 (ЮВ) 10 км    6/4 600 м кучево-дожд., верхняя 
[Cb cap|Ci fib]
+16.2 +14.8 91 +27  1011.4  -1.2  737  277           
03 15.08.18 090 (В) 4000 м  гроза без осадков{ливн. осадки}  8/4 600 м кучево-дожд., верхняя 
[Cb cap|Ci fib]
+16.5 +15.7 95 +28  1010.2  -1.1  737  276  +15.8       
06 15.08.18 200 (Ю) 10 км  гроза без осадков{ливн. осадки}  8/4 300 м кучево-дожд., средняя 
[Cb cap|Ac trans]
+18.2 +17.1 93 +33  1009.2  -0.8  736  274  +15.8      влажная 
09 15.08.18 240 (ЮЗ) 20000 м    8/4 1000 м верхняя 
[Sc diur, vesp|Ci fib]
+23.4 +17.4 69 +37  1009.6  -0.8  737  270           
12 15.08.18 280 (З) 20000 м    10/10 300 м кучево-дожд. 
[Cb cap]
+20.9 +16.8 77 +33  1011.2  1.3  738  272           
15 15.08.18 240 (ЮЗ) 20000 м    8/0 верхняя 
[Ci fib]
+22.2 +16.3 69 +34  1011.8  0.7  738  272         
21 15.08.18 тихо ()   4000 м  дымка  4/4 300 м 
[Sc]
+15.9 +14.8 93 +25  1014  0.8  739  278           
03 16.08.18 тихо ()   4000 м  дымка  9/9 1000 м 
[Sc]
+14.5 +13.7 95 +21  1015.7  740  281  +14.1         
06 16.08.18 290 (З) 10 км    9/4 1000 м средняя 
[Sc|Ac trans]
+18.4 +15.9 85 +31  1016.3  741  276  +14.1        влажная 
09 16.08.18 270 (З) 20000 м    8/5 600 м кучево-дожд., верхняя 
[Cb cap|Ci fib]
+22 +16 69 +33  1016.7  0.7  742  273           
21 16.08.18 060 (СВ) 10 км    ясно 
+15.2 +13.6 90 +24  1021.3  745  281           
00 17.08.18 070 (В) 10 км    ясно 
+13.8 +12.4 91 +20  1022  0.6  745  283           
03 17.08.18 080 (В) 10 км    8/4 1000 м верхняя 
[Sc|Ci fib]
+14 +12.4 90 +20  1022.7  0.7  746  283  +13.4         
09 17.08.18 080 (В) 10 км    8/8 1000 м 
[Cu med, cong]
+19.9 +14.1 69 +28  1023  0.2  746  277           
12 17.08.18 090 (В) 10 км    9/8 1000 м средняя 
[Cu med, cong|Ac trans]
+21.9 +13.9 60 +29  1022.4  -0.4  746  275           
15 17.08.18 090 (В) 10 км    8/0 средняя, верхняя 
[Ac trans|Ci fib]
+21.2 +13.7 62 +28  1021.7  -0.8  745  276           
21 17.08.18 100 (В) 10 км    ясно 
+13.2 +12.4 95 +19  1022.7  0.3  746  284           
00 18.08.18 100 (В) 10 км    ясно 
+13.6 +11.8 89 +18  1022.9  0.2  746  284           
09 18.08.18 110 (В) 20000 м    ясно 
+23 +13.2 54 +29  1021.5  -0.3  745  274           
Время (UTC), дата Ветер
(°,м/с) 
Видим.   Явления Облачность Т
(°С)
Тd
(°С)
f(%) Тe
(°С)
Pmin
(гПа)
dP
(гПа)
Po
(мм)
O2
(г/м3)
Тmin Tmax R s Состояние
почвы

Для получения пояснительной информации подведите курсор к названию столбца.

ПОГОДА в Смоленске - архив

Всё, что Вы хотите узнать о погоде в Смоленске - удобно и подробно!

Выберите нужную дату (начиная с 1 января 2015* года) и нажмите кнопку "Найти".
Будут отображены архивные сводки погоды по пункту Смоленск, начиная с указанной даты.


Отображать данные в формате CSV (для использования в таблицах Excel)


Внимание! Наш архив погоды предназначен исключительно для личного некоммерческого использования в познавательных целях. Если Вам необходимы официальные справки о состоянии погоды (для производственных, юридических, коммерческих и т.п. целей), обращайтесь в органы Росгидромета.

*Примечание: данная дата относится к архиву по метеостанциям СССР (Россия, СНГ, Балтия).
Архив по метеостанциям Зарубежной Европы и Азии (кроме Китая) хранится 10 дней, по другим регионам земного шара (Китай, Африка, Америка, Австралия, Океания) - 1 день.

Смоленск - район местоположения метеостанции


Название, широта, долгота, высота метеостанции:
Смоленск 54.8°ш. 32.1°д. 239 м над ур. моря [Российская Федерация]

Дополнительная информация

В oтличие oт бoльшинства пoгoдных сайтoв мы публикуем пoдрoбную метеoинфoрмацию в детальнoм прoфессиoнальнoм фoрмате.

Характеристики температуры и влажнoсти вoздуха измеряются на высoте 2 м в тени вдали oт зданий и деревьев.
Скoрoсть ветра измеряется на высoте 10 м (на урoвне рoста челoвека скoрoсть ветра ниже в 1.5-2 раза). Если метеoстанция нахoдится в гoрoде или в лесу, тo скoрoсть ветра занижена на 2-4 м/с пo сравнению с oткрытым местoм. Скoрoсть ветра над акватoриями крупных рек и oзёр, а также на вершинах хoлмoв на 2-5 м/с выше, чем в oбычных услoвиях.
Атмoсфернoе давление в разных тoчках местнoсти мoжет значительнo oтличаться oт давления на метеoстанции, в зависимoсти oт услoвий рельефа (при пoдъёме на 10 м давление пoнижается примернo на 1 мм рт.ст.).